Terug naar catalogus

STARLINK-32405

ActiefCommunicatieVLEO
NORAD 61636·PAYLOAD·🇺🇸 United States

Gelanceerd Oct 23, 2024 vanaf Cape Canaveral Space Force Station

Loading…

Volgende Passages (komende 24 uur)

TLE

VersSource: CelesTrak SupGP

Epoch: Sep 14, 2026, 21:15 UTC

1 61636C 24191R   26257.88590278 -.00026997  00000+0 -97772-3 0  2574
2 61636  43.0006 169.8659 0001376 264.2029 220.8760 15.27595657    11

Volg STARLINK-32405 in realtime met AllMySat

Download on the App Store